Location: Zengebe
(1.4833°N, 32.5167°E)
Time: 08:55:14
(UTC+00:00)

Sylda 4400 - Pass Details

Date: 07 June 2020
Orbit: 311 x 6992 km, 6.8° (Epoch: 03 July)

Event Time Altitude Azimuth Distance (km) Brightness Sun altitude
Exits shadow 02:26:20 35° 184° (S) 718 3.6 -18.3°
Maximum altitude 02:26:42 36° 167° (SSE) 727 3.8 -18.3°
Drops below altitude 10° 02:31:05 10° 98° (E) 2,321 7.3 -17.3°
Sets 02:35:08 0° 91° (E) 4,083 8.9 -16.3°
